Location: Unspecified
(43.4354°N, 0.0000°E)
Time: 09:58:54
(UTC+00:00)

Tiros 1 despin weight - Pass Details

Date: 25 June 2019
Orbit: 594 x 642 km, 48.2° (Epoch: 18 July)

Event Time Altitude Azimuth Distance (km) Brightness Sun altitude
Rises 21:26:08 0° 224° (SW) 2,865 ? -14.1°
Reaches altitude 10° 21:28:30 10° 218° (SW) 1,955 ? -14.4°
Maximum altitude 21:32:46 45° 146° (SE) 826 ? -14.8°
Drops below altitude 10° 21:37:01 10° 73° (ENE) 1,939 ? -15.3°
Sets 21:39:22 0° 68° (ENE) 2,839 ? -15.5°
